[Iaude] MPEC B71: 2010 UD [a=1.10,e=0.26,i=26.3,H=21.0,PHA]

mpec at si.edu mpec at si.edu
Fri Jan 27 10:39:46 EST 2017


M.P.E.C. 2017-B71                                Issued 2017 Jan. 27, 15:36 UT
 
     The Minor Planet Electronic Circulars contain information on unusual
         minor planets and routine data on comets.  They are published
    on behalf of Division F of the International Astronomical Union by the
          Minor Planet Center, Smithsonian Astrophysical Observatory,
                          Cambridge, MA 02138, U.S.A.

             Prepared using the Tamkin Foundation Computer Network

                              MPC at CFA.HARVARD.EDU
            URL http://www.minorplanetcenter.net/    ISSN 1523-6714


                                    2010 UD
 
                           Revision to MPEC 2010-U11
 
Additional Observations:
     K10U00D KC2017 01 25.22258 14 19 07.02 +45 52 14.7          21.1 RtEB071J04
     K10U00D KC2017 01 25.23163 14 19 07.91 +45 52 21.0          21.0 RtEB071J04
     K10U00D KC2017 01 25.24030 14 19 08.84 +45 52 26.6          21.2 RtEB071J04
     K10U00D 2C2017 01 25.65427314 19 53.461+45 56 55.75         21.9 RtEB071568
     K10U00D 2C2017 01 25.65549414 19 53.570+45 56 56.55         21.7 RtEB071568
     K10U00D 2C2017 01 25.65671014 19 53.690+45 56 57.12         21.6 RtEB071568
     K10U00D  C2017 01 26.64412414 21 39.129+46 07 46.61         22.4 GUEB071T12
     K10U00D  C2017 01 26.64823114 21 39.528+46 07 49.30         22.2 GUEB071T12
     K10U00D KC2017 01 27.23053 14 22 40.82 +46 14 18.3          20.9 RtEB071J04
     K10U00D KC2017 01 27.23807 14 22 41.56 +46 14 23.8          21.1 RtEB071J04
     K10U00D KC2017 01 27.24561 14 22 42.26 +46 14 29.3          21.1 RtEB071J04
 
Observer details:
568 Mauna Kea.  Observer L. Wells.  Measurer D. J. Tholen.  3.6-m
    Canada-France-Hawaii Telescope.
J04 ESA Optical Ground Station, Tenerife.  Observer D. Abreu.  Measurers
    E. Schwab, M. Micheli, D. Koschny, A. Knoefel, M. Busch.  1.0-m f/4.4
    reflector + CCD.
T12 Mauna Kea-UH/Tholen NEO Follow-Up (2.24-m).  Observers Y. Ramanjooloo,
    D. J. Tholen.  Measurer D. J. Tholen.  2.24-m University of Hawaii
    reflector.
 
First and last observations above in comparison with prediction:
Residuals in seconds of arc, reference and Delta-T
170125 J04  0.7+  2.5-    170127 J04  0.5+  2.1-    MPO190736   -0.00068 day
 
Orbital elements:
2010 UD                                             PHA, Earth MOID = 0.0144 AU
Epoch 2017 Feb. 16.0 TT = JDT 2457800.5                 MPC
M 250.82483              (2000.0)            P               Q
n   0.85710971     Peri.  262.26126     +0.23480764     +0.95551115
a   1.0976025      Node    23.76721     -0.62117618     +0.28874979
e   0.2639552      Incl.   26.29002     -0.74766672     +0.06018301
P   1.15           H   21.0           G   0.15           U   3
Residuals in seconds of arc
101017 G96  0.3-  0.0     101018 H21  0.5-  0.3+    101025 J95  0.0   0.1-
101017 G96  0.2-  0.1-    101018 H21  0.4-  0.1+    101026 587  0.1+  0.1+
101017 G96  0.1+  0.2-    101018 H21  0.5-  0.2+    101026 587  0.4+  0.2+
101017 G96  0.3-  0.0     101018 H21  0.4-  0.3+    101026 587  0.1+  0.1-
101017 G96  0.0   0.1-    101018 H21  0.2-  0.2+    101026 203  0.1+  0.2-
101017 G96  0.2-  0.0     101018 F65  0.3+  0.0     101026 204  0.0   0.2-
101017 G96  0.2-  0.0     101018 F65  1.1+  0.1+    101026 204  0.0   0.2-
101017 H21  0.1-  0.1+    101018 F65  1.1+  0.3+    101026 203  0.1-  0.3-
101017 H21  0.1-  0.1+    101018 A48  0.2+  0.1+    101026 204  0.0   0.3-
101017 H21  0.0   0.0     101018 A48  0.2+  0.2+    101026 204  0.1+  0.2-
101017 H21  0.1-  0.1-    101018 A48  0.2+  0.1+    101026 204  0.0   0.2-
101017 H21  0.0   0.1+    101018 A48  0.1+  0.1+    101027 H21  0.1+  0.1+
101017 H36  0.1-  0.2+    101018 B75  1.3-  1.2+    101027 H21  0.1-  0.0
101017 H36  0.4+  0.0     101018 B75 (2.3-  1.9+)   101027 H21  0.0   0.1+
101017 H36  0.0   0.2+    101018 B75 (2.2-  1.8+)   101027 H21  0.0   0.1+
101017 G96  0.1-  0.2-    101018 B75 (3.2-  2.7+)   101027 151  0.1-  0.3+
101017 G96  0.3-  0.0     101018 B75 (2.5-  2.0+)   101027 151  0.1-  0.1+
101017 G96  0.1-  0.0     101018 B75 (3.6-  2.0+)   101027 151  0.1-  0.1-
101017 G96  0.2-  0.1-    101018 B75 (3.8+  2.5-)   101027 151  0.1-  0.0
101017 854 (1.3-  1.8+)   101018 B75 (0.6-  1.5+)   101027 151  0.2-  0.2-
101017 854  0.5-  0.3+    101018 B75 (2.1+  1.6-)   101027 151  0.1-  0.1-
101017 854  0.3-  0.6+    101018 203  0.2-  0.1-    101027 151  0.1-  0.0
101017 854  0.2-  0.7+    101018 203  0.1+  0.1-    101027 560  0.2+  0.1-
101017 854  0.2-  0.6+    101018 B75  0.2+  0.8+    101027 560  0.3+  0.1-
101017 H06  0.4-  0.6+    101018 B75  0.3+  0.3-    101027 560  0.3-  0.1-
101017 H06  0.3-  0.6+    101018 B75  0.4-  0.1+    101027 560  0.1-  0.3-
101017 H06  0.2-  0.4+    101018 B75  0.7+  0.8-    101028 H21  0.2+  0.2+
101017 G96  0.1-  0.1+    101018 B75  0.0   0.3+    101028 H21  0.2+  0.1+
101017 G96  0.3-  0.0     101018 B75  0.4-  0.5+    101028 H21  0.1-  0.2+
101017 G96  0.1-  0.1+    101019 H26  0.3+  0.5+    101028 H21  0.2+  0.1-
101017 900  0.1+  0.1+    101019 H26  0.5+  0.6+    101028 A48  0.6+  0.0
101017 300  0.5+  0.1-    101019 H26  0.1+  0.7+    101028 A48  0.0   0.2-
101017 300  0.3+  0.0     101019 H26  0.4+  0.5+    101028 A48  0.1-  0.5+
101017 900  0.1+  0.0     101019 H26  0.3+  0.4+    101028 A48  0.4-  0.3-
101017 300  0.3-  0.0     101019 H26  0.2-  1.0+    101029 H21  0.1+  0.1+
101017 300  0.0   0.3-    101019 704  0.0   1.1+    101029 H21  0.1+  0.3+
101017 900  0.0   0.1-    101019 704  0.0   1.0+    101029 H21  0.1-  0.2-
101017 300  0.1-  0.2-    101019 704  0.1-  0.9+    101029 H26  0.3-  0.1-
101017 300  0.1+  0.4-    101019 704  0.1+  0.7+    101029 H26  0.2+  0.3-
101017 300  0.3-  0.5-    101019 704  0.1+  0.7+    101029 H26  0.0   0.3+
101017 900  0.3-  0.0     101019 160  0.2+  0.3-    101029 H26  0.4+  0.1+
101017 300  0.2-  0.1-    101019 160  0.2+  0.3-    101029 H26  0.1+  0.0
101017 300  0.3+  0.3-    101019 160  0.1-  0.7-    101031 H21  0.0   0.1-
101017 300  0.1-  0.3-    101019 J95  0.2-  0.1-    101031 H21  0.0   0.0
101017 300  0.2+  0.1-    101019 J95  0.1+  0.1-    101031 H21  0.1+  0.1+
101017 300  0.1+  0.1-    101019 J95  0.1+  0.2-    101031 H21  0.2+  0.2+
101017 300  0.2+  0.1-    101020 H21  0.1+  0.1+    101031 H21  0.0   0.0
101017 900  0.1+  0.0     101020 H21  0.1-  0.0     101103 H21  0.0   0.4+
101017 300  0.0   0.1-    101020 H21  0.0   0.2+    101103 H21  0.1+  0.1+
101017 E12  0.7+  0.8-    101020 H21  0.0   0.2+    101103 H21  0.1+  0.0
101017 E12  0.2+  0.4-    101020 203  0.1-  0.1-    101104 H21  0.5+  0.1+
101017 E12  0.1-  0.1-    101020 B75  1.2-  0.5+    101104 H21  0.5+  0.4+
101017 E12  0.1-  0.1+    101020 B75 (0.7+  2.7-)   101104 H21  0.3+  0.2+
101017 E12  0.0   0.0     101020 B75 (2.6-  0.7+)   101105 118  0.5-  0.3+
101017 113  0.2-  0.3+    101020 B75 (1.8+  0.4+)   101105 118  0.6-  0.1+
101017 113  0.3-  0.5+    101020 B75 (3.1+  2.4+)   101115 H21  0.0   0.0
101017 113  0.0   0.1+    101020 B75 (0.6+  2.3-)   101115 H21  0.3+  0.2-
101017 213  0.4+  0.2-    101020 B75 (2.4+  0.1+)   101115 H21  0.1-  0.1+
101017 213  0.4-  0.1-    101020 B75  0.2+  0.7+    101128 H21  0.3+  0.0
101017 213  0.1+  0.3-    101020 B75  0.9+  0.6-    101128 H21  0.2+  0.2+
101017 A17  0.0   0.3-    101020 B75 (4.0+  0.9-)   101128 H21  0.3+  0.2+
101017 J75  0.6-  0.3+    101020 203  0.1-  0.0     170125 J04  0.1-  0.1-
101017 J75  0.1+  0.2+    101022 H21  0.0   0.1-    170125 J04  0.5-  0.2+
101017 A17  0.1-  0.1-    101022 H21  0.2-  0.1-    170125 J04  0.0   0.1+
101017 J95  0.0   0.3-    101022 H21  0.0   0.1-    170125 568  0.1+  0.1+
101017 J95  0.0   0.1-    101022 H21  0.0   0.0     170125 568  0.1-  0.1+
101017 J95  0.0   0.2-    101022 H21  0.1-  0.0     170125 568  0.1-  0.2-
101017 A17  0.2+  0.4-    101022 H21  0.1-  0.1+    170126 T12  0.1+  0.1+
101017 J28 (1.7-  0.4+)   101022 I15  0.3+  0.2-    170126 T12  0.0   0.0
101017 A17  0.1-  0.2-    101022 I15  0.1-  0.2+    170127 J04  0.0   0.1-
101017 J28  0.7-  0.8+    101022 I15  0.1-  0.3-    170127 J04  0.0   0.1+
101017 J28  0.7+  0.6+    101025 J95  0.1-  0.0     170127 J04  0.3-  0.4+
101018 H21  0.5-  0.2-    101025 J95  0.1-  0.2-

Ephemeris:
2010 UD                  a,e,i = 1.10, 0.26, 26                  q = 0.8079
Date    TT    R. A. (2000) Decl.     Delta      r     Elong.  Phase     V
2016 12 28    13 16 39.7 +42 35 05   0.8326  1.3658    97.2    45.6    23.0
...
2017 01 12    13 52 23.3 +43 56 00   0.7347  1.3415   101.7    45.9    22.7
...
2017 01 20    14 09 10.9 +45 00 30   0.6812  1.3249   104.0    46.1    22.5
...
2017 01 26    14 20 30.3 +46 00 35   0.6405  1.3109   105.6    46.3    22.4
2017 01 27    14 22 16.2 +46 11 39   0.6336  1.3084   105.8    46.4    22.4
2017 01 28    14 23 59.8 +46 23 01   0.6268  1.3059   106.1    46.4    22.3
...
2017 02 03    14 33 30.1 +47 37 58   0.5855  1.2900   107.6    46.7    22.2
...
2017 02 11    14 43 30.4 +49 36 41   0.5300  1.2668   109.5    47.2    21.9
...
2017 02 26    14 50 05.8 +54 26 38   0.4248  1.2172   112.4    48.8    21.4

A. U. Tomatic                (C) Copyright 2017 MPC           M.P.E.C. 2017-B71




More information about the Iaude mailing list